| time (UTC) | temp C | wind direction | speed KPH | gust KPH | rain 1hr cm | rain 24hr cm | rain mn cm | humidity % | barometer mb |
| 20260506201511 | 2 | 207 | 6.4 | 16.1 | 0.43 | 0.43 | 0.43 | 72 | 1012.0 |
| 20260506200010 | 2 | 140 | 4.8 | 14.5 | 0.33 | 0.33 | 0.33 | 70 | 1011.4 |
| 20260506194608 | 2 | 194 | 1.6 | 11.3 | 0.20 | 0.20 | 0.20 | 71 | 1011.3 |
| 20260506193106 | 3 | 247 | 4.8 | 14.5 | 0.08 | 0.08 | 0.08 | 61 | 1010.9 |
| 20260506191509 | 3 | 196 | 3.2 | 9.7 | 0.00 | 0.00 | 0.00 | 61 | 1010.7 |
| 20260506190002 | 3 | 223 | 1.6 | 24.1 | 0.00 | 0.00 | 0.00 | 64 | 1010.6 |
| 20260506184603 | 2 | 288 | 1.6 | 16.1 | 0.00 | 0.00 | 0.00 | 65 | 1010.6 |
| 20260506183100 | 1 | 222 | 1.6 | 9.7 | 0.00 | 0.00 | 0.00 | 79 | 1010.4 |
| 20260506181557 | 1 | 195 | 1.6 | 4.8 | 0.00 | 0.00 | 0.00 | 84 | 1010.1 |
| 20260506180056 | 2 | 268 | 0.0 | 9.7 | 0.00 | 0.00 | 0.00 | 82 | 1009.8 |
| 20260506174552 | 2 | 177 | 0.0 | 3.2 | 0.00 | 0.00 | 0.00 | 85 | 1010.2 |
| 20260506173107 | 1 | 226 | 0.0 | 0.0 | 0.00 | 0.00 | 0.00 | 90 | 1010.2 |
| 20260506171555 | 0 | 173 | 0.0 | 0.0 | 0.00 | 0.00 | 0.00 | 92 | 1010.3 |
| 20260506170050 | -1 | 136 | 0.0 | 0.0 | 0.00 | 0.00 | 0.00 | 92 | 1010.3 |
| 20260506164544 | 0 | 129 | 0.0 | 1.6 | 0.00 | 0.00 | 0.00 | 91 | 1010.5 |
| 20260506163056 | 0 | 269 | 0.0 | 0.0 | 0.00 | 0.00 | 0.00 | 91 | 1009.5 |
| 20260506161543 | 0 | 238 | 0.0 | 0.0 | 0.00 | 0.00 | 0.00 | 92 | 1008.9 |
| 20260506160039 | 0 | 257 | 0.0 | 0.0 | 0.00 | 0.00 | 0.00 | 92 | 1008.9 |
| 20260506154539 | 0 | 139 | 0.0 | 0.0 | 0.00 | 0.00 | 0.00 | 91 | 1009.0 |
| 20260506153040 | 0 | 184 | 0.0 | 3.2 | 0.00 | 0.00 | 0.00 | 88 | 1009.1 |
| 20260506151535 | 0 | 67 | 0.0 | 0.0 | 0.00 | 0.00 | 0.00 | 88 | 1008.7 |
| 20260506150036 | 0 | 229 | 0.0 | 0.0 | 0.00 | 0.00 | 0.00 | 89 | 1009.0 |
| 20260506144537 | 0 | 253 | 0.0 | 0.0 | 0.00 | 0.00 | 0.00 | 90 | 1008.8 |
| 20260506143032 | 0 | 270 | 0.0 | 1.6 | 0.00 | 0.00 | 0.00 | 88 | 1008.8 |
| 20260506141531 | 0 | 126 | 0.0 | 1.6 | 0.00 | 0.00 | 0.00 | 91 | 1008.7 |
| 20260506140038 | 0 | 250 | 0.0 | 0.0 | 0.00 | 0.00 | 0.00 | 94 | 1008.7 |
| 20260506134529 | 0 | 250 | 0.0 | 0.0 | 0.00 | 0.00 | 0.00 | 94 | 1008.5 |
| 20260506133030 | 0 | 250 | 0.0 | 0.0 | 0.00 | 0.00 | 0.00 | 94 | 1008.5 |
| 20260506131533 | -1 | 250 | 0.0 | 0.0 | 0.00 | 0.00 | 0.00 | 94 | 1008.4 |
| 20260506130028 | -1 | 250 | 0.0 | 0.0 | 0.00 | 0.00 | 0.00 | 94 | 1008.3 |
| 20260506124525 | -1 | 250 | 0.0 | 0.0 | 0.00 | 0.00 | 0.00 | 94 | 1008.1 |
| 20260506123024 | -1 | 252 | 0.0 | 0.0 | 0.00 | 0.00 | 0.00 | 94 | 1007.9 |
| 20260506121522 | -1 | 252 | 0.0 | 0.0 | 0.00 | 0.00 | 0.00 | 93 | 1007.7 |
| 20260506120030 | 0 | 252 | 0.0 | 0.0 | 0.00 | 0.00 | 0.00 | 93 | 1007.8 |
| 20260506114518 | 0 | 252 | 0.0 | 0.0 | 0.00 | 0.00 | 0.00 | 93 | 1007.7 |
| 20260506113019 | 0 | 260 | 0.0 | 1.6 | 0.00 | 0.00 | 0.00 | 92 | 1007.6 |
| 20260506111518 | 0 | 203 | 0.0 | 0.0 | 0.00 | 0.00 | 0.00 | 92 | 1007.3 |
| 20260506110015 | 0 | 131 | 0.0 | 1.6 | 0.00 | 0.00 | 0.00 | 91 | 1007.1 |
| 20260506104513 | 0 | 131 | 0.0 | 0.0 | 0.00 | 0.00 | 0.00 | 92 | 1007.1 |
| 20260506103019 | 0 | 131 | 0.0 | 0.0 | 0.00 | 0.00 | 0.00 | 92 | 1007.1 |
| 20260506101513 | 0 | 222 | 0.0 | 0.0 | 0.00 | 0.00 | 0.00 | 92 | 1007.0 |
| 20260506100011 | 0 | 222 | 0.0 | 0.0 | 0.00 | 0.00 | 0.00 | 92 | 1007.0 |
| 20260506094510 | 0 | 221 | 0.0 | 0.0 | 0.00 | 0.00 | 0.00 | 92 | 1006.8 |
| 20260506093013 | 0 | 264 | 0.0 | 1.6 | 0.00 | 0.00 | 0.00 | 91 | 1006.7 |
| 20260506091508 | 0 | 134 | 0.0 | 4.8 | 0.00 | 0.00 | 0.00 | 88 | 1006.6 |
| 20260506090005 | 0 | 35 | 0.0 | 0.0 | 0.00 | 0.00 | 0.00 | 88 | 1006.6 |
| 20260506084511 | 0 | 146 | 0.0 | 1.6 | 0.00 | 0.00 | 0.00 | 90 | 1006.7 |
| 20260506083003 | 0 | 160 | 0.0 | 0.0 | 0.00 | 0.00 | 0.00 | 88 | 1006.7 |
| 20260506081504 | 0 | 63 | 0.0 | 1.6 | 0.00 | 0.00 | 0.00 | 90 | 1007.0 |
| 20260506080112 | 0 | 271 | 0.0 | 1.6 | 0.00 | 0.00 | 0.00 | 91 | 1007.1 |
| 20260506073110 | 0 | 271 | 0.0 | 1.6 | 0.00 | 0.00 | 0.00 | 90 | 1007.2 |
| 20260506071554 | 1 | 265 | 0.0 | 1.6 | 0.00 | 0.00 | 0.00 | 88 | 1007.3 |
| 20260506061559 | 1 | 259 | 0.0 | 1.6 | 0.00 | 0.00 | 0.00 | 88 | 1007.3 |
| 20260506044541 | 1 | 281 | 0.0 | 1.6 | 0.00 | 0.00 | 0.00 | 89 | 1007.2 |
| 20260506043043 | 1 | 266 | 0.0 | 3.2 | 0.00 | 0.00 | 0.00 | 88 | 1007.1 |
| 20260506041544 | 1 | 199 | 0.0 | 8.0 | 0.00 | 0.00 | 0.00 | 83 | 1007.0 |
| 20260506040037 | 2 | 115 | 0.0 | 1.6 | 0.00 | 0.00 | 0.00 | 72 | 1006.7 |
| 20260506034536 | 3 | 237 | 0.0 | 9.7 | 0.00 | 0.00 | 0.00 | 69 | 1006.4 |
| 20260506033036 | 4 | 141 | 0.0 | 8.0 | 0.00 | 0.00 | 0.00 | 51 | 1005.7 |
| 20260506031536 | 4 | 74 | 0.0 | 1.6 | 0.00 | 0.00 | 0.00 | 47 | 1005.1 |
| 20260506030036 | 4 | 68 | 0.0 | 3.2 | 0.00 | 0.00 | 0.00 | 49 | 1005.0 |
| 20260506024534 | 4 | 257 | 0.0 | 0.0 | 0.00 | 0.00 | 0.00 | 48 | 1004.6 |
| 20260506023039 | 5 | 257 | 0.0 | 0.0 | 0.00 | 0.00 | 0.00 | 46 | 1004.3 |
| 20260506021534 | 5 | 257 | 0.0 | 1.6 | 0.00 | 0.00 | 0.00 | 47 | 1004.3 |
| 20260506020106 | 5 | 266 | 0.0 | 6.4 | 0.00 | 0.00 | 0.00 | 43 | 1004.3 |
| 20260506014532 | 6 | 37 | 3.2 | 17.7 | 0.00 | 0.00 | 0.00 | 40 | 1004.1 |
| 20260506013032 | 7 | 58 | 3.2 | 11.3 | 0.00 | 0.00 | 0.00 | 38 | 1003.7 |
| 20260506011534 | 7 | 66 | 0.0 | 3.2 | 0.00 | 0.00 | 0.00 | 35 | 1003.5 |
| 20260506010031 | 8 | 110 | 1.6 | 6.4 | 0.00 | 0.00 | 0.00 | 34 | 1003.5 |
| 20260506004534 | 8 | 240 | 3.2 | 9.7 | 0.00 | 0.00 | 0.00 | 31 | 1003.4 |
| 20260506003030 | 10 | 279 | 1.6 | 8.0 | 0.00 | 0.00 | 0.00 | 30 | 1003.1 |
| 20260506001530 | 10 | 169 | 0.0 | 11.3 | 0.00 | 0.00 | 0.00 | 27 | 1003.2 |
| 20260506000043 | 10 | 285 | 1.6 | 8.0 | 0.00 | 0.00 | 0.00 | 28 | 1003.0 |
| 20260505234528 | 11 | 255 | 4.8 | 14.5 | 0.00 | 0.00 | 0.00 | 27 | 1003.0 |
| 20260505233028 | 11 | 110 | 0.0 | 11.3 | 0.00 | 0.00 | 0.00 | 25 | 1002.9 |
| 20260505231529 | 11 | 226 | 1.6 | 11.3 | 0.00 | 0.00 | 0.00 | 28 | 1003.0 |
| 20260505230039 | 11 | 255 | 0.0 | 9.7 | 0.00 | 0.00 | 0.00 | 27 | 1003.0 |
| 20260505224523 | 10 | 265 | 8.0 | 14.5 | 0.00 | 0.00 | 0.00 | 29 | 1003.1 |
| 20260505223021 | 10 | 138 | 0.0 | 17.7 | 0.00 | 0.00 | 0.00 | 30 | 1003.6 |
| 20260505221519 | 10 | 252 | 0.0 | 17.7 | 0.00 | 0.00 | 0.00 | 29 | 1003.5 |
| 20260505220017 | 11 | 43 | 3.2 | 11.3 | 0.00 | 0.00 | 0.00 | 27 | 1003.9 |
| 20260505214515 | 10 | 262 | 1.6 | 20.9 | 0.00 | 0.00 | 0.00 | 29 | 1004.0 |
| 20260505213016 | 10 | 79 | 6.4 | 17.7 | 0.00 | 0.00 | 0.00 | 30 | 1004.4 |
| 20260505211518 | 8 | 98 | 4.8 | 16.1 | 0.00 | 0.00 | 0.00 | 33 | 1004.6 |
| 20260505210012 | 10 | 5 | 1.6 | 24.1 | 0.00 | 0.00 | 0.00 | 34 | 1004.8 |
| 20260505204510 | 8 | 37 | 4.8 | 17.7 | 0.00 | 0.00 | 0.00 | 34 | 1005.1 |
| 20260505203110 | 10 | 238 | 1.6 | 12.9 | 0.00 | 0.00 | 0.00 | 29 | 1005.1 |